Garden City, GA

1:06 AM EDT on September 30, 2016 (GMT -0400)
Savannah International

Weather History for KSAV - July, 2013

Change the Weather History Date:

Sunday, July 28, 2013

  Actual Average Record
Temperature  
Mean Temperature 82 °F 83 °F  
Max Temperature 89 °F 92 °F 102 °F (1949)
Min Temperature 74 °F 73 °F 64 °F (1920)
Degree Days  
Heating Degree Days 0 0  
Month to date heating degree days 0 0  
Since 1 June heating degree days 0 0  
Since 1 July heating degree days 0 0  
Cooling Degree Days 17 18  
Month to date cooling degree days 453 496  
Year to date cooling degree days 1279 1345  
Since 1 June cooling degree days 921 942  
Growing Degree Days 31 (Base 50)    
Moisture  
Dew Point 73 °F    
Average Humidity 77    
Maximum Humidity 94    
Minimum Humidity 59    
Precipitation  
Precipitation 0.00 in 0.20 in 5.32 in (1926)
Month to date precipitation 8.75 4.97  
Year to date precipitation 36.57 27.18  
Sea Level Pressure  
Sea Level Pressure 29.98 in    
Wind  
Wind Speed 4 mph (SSW)    
Max Wind Speed 13 mph    
Max Gust Speed 15 mph    
Visibility 9 miles    
Events      
T = Trace of Precipitation, MM = Missing Value Source: NWS Daily Summary

Daily Weather History Graph

Daily Weather History Graph

Search for Another Location

Airport or City:

Trip Planner

Search our weather history database for the weather conditions in past years. The results will help you decide how hot, cold, wet, or windy it might be!

Date:

Astronomy

Jul. 28, 2013 Rise Set
Actual Time 6:37 AM EDT 8:24 PM EDT
Civil Twilight 6:10 AM EDT 8:51 PM EDT
Nautical Twilight 5:38 AM EDT 9:24 PM EDT
Astronomical Twilight 5:03 AM EDT 9:58 PM EDT
Moon No Moon Rise 12:50 PM EDT (7/28)
Length of Visible Light 14h 41m
Length of Day
13h 47m
Waning Gibbous, 61% of the Moon is Illuminated
Jul 28
Waning Gibbous
Jul 29
Last Quarter
Aug 6
New
Aug 14
First Quarter
Aug 20
Full

Hourly Weather History & Observations

Time (EDT) Temp. Heat Index Dew Point Humidity Pressure Visibility Wind Dir Wind Speed Gust Speed Precip Events Conditions
12:53 AM 75.9 °F - 73.0 °F 91% 29.94 in 9.0 mi Calm Calm - N/A   Clear
1:53 AM 75.9 °F - 73.0 °F 91% 29.94 in 7.0 mi Calm Calm - N/A   Clear
2:53 AM 75.0 °F - 73.0 °F 94% 29.95 in 7.0 mi West 3.5 mph - N/A   Clear
3:53 AM 75.0 °F - 72.0 °F 90% 29.94 in 8.0 mi Calm Calm - N/A   Clear
4:53 AM 73.9 °F - 72.0 °F 93% 29.94 in 8.0 mi Calm Calm - N/A   Clear
5:53 AM 75.0 °F - 71.1 °F 87% 29.95 in 8.0 mi Calm Calm - N/A   Overcast
6:53 AM 75.0 °F - 72.0 °F 90% 29.96 in 8.0 mi Calm Calm - N/A   Overcast
7:53 AM 75.9 °F - 72.0 °F 87% 29.98 in 8.0 mi NW 3.5 mph - N/A   Overcast
8:53 AM 77.0 °F - 73.0 °F 88% 30.00 in 9.0 mi WNW 3.5 mph - N/A   Overcast
9:53 AM 78.1 °F - 73.0 °F 84% 29.99 in 9.0 mi Calm Calm - N/A   Overcast
10:53 AM 79.0 °F - 73.0 °F 82% 30.01 in 10.0 mi Calm Calm - N/A   Overcast
11:53 AM 81.0 °F 85.8 °F 73.0 °F 77% 30.01 in 10.0 mi Calm Calm - N/A   Overcast
12:53 PM 84.0 °F 90.2 °F 73.0 °F 69% 30.00 in 10.0 mi Calm Calm - N/A   Mostly Cloudy
1:53 PM 84.9 °F 90.7 °F 72.0 °F 65% 30.00 in 10.0 mi Calm Calm - N/A   Mostly Cloudy
2:53 PM 86.0 °F 93.0 °F 73.0 °F 65% 30.00 in 10.0 mi WNW 5.8 mph - N/A   Mostly Cloudy
3:53 PM 87.1 °F 92.8 °F 71.1 °F 59% 29.98 in 10.0 mi Calm Calm - N/A   Mostly Cloudy
4:53 PM 88.0 °F 94.7 °F 72.0 °F 59% 29.96 in 10.0 mi South 5.8 mph - N/A   Mostly Cloudy
5:53 PM 88.0 °F 94.7 °F 72.0 °F 59% 29.97 in 10.0 mi SE 8.1 mph - N/A   Mostly Cloudy
6:53 PM 87.1 °F 94.5 °F 73.0 °F 63% 29.99 in 10.0 mi South 10.4 mph - N/A   Scattered Clouds
7:53 PM 84.0 °F 91.2 °F 73.9 °F 72% 30.01 in 10.0 mi SSE 9.2 mph - N/A   Mostly Cloudy
8:53 PM 82.0 °F 87.4 °F 73.0 °F 74% 30.02 in 10.0 mi SE 9.2 mph - N/A   Mostly Cloudy
9:53 PM 80.1 °F 84.5 °F 73.9 °F 81% 30.03 in 9.0 mi South 5.8 mph - N/A   Mostly Cloudy
10:53 PM 79.0 °F - 73.9 °F 84% 30.03 in 9.0 mi South 5.8 mph - N/A   Mostly Cloudy
11:53 PM 79.0 °F - 75.0 °F 88% 30.04 in 8.0 mi SSW 6.9 mph - N/A   Scattered Clouds